Location: Mascot Post Office (historical)
(40.2645°N, 99.5462°W)
Time: 02:44:23
(UTC+00:00)

Resurs 01 Rocket - Pass Details

Date: 14 July 2020
Orbit: 635 x 643 km, 98.0° (Epoch: 14 August)

Event Time Altitude Azimuth Distance (km) Brightness Sun altitude
Exits shadow 03:08:50 - 163° (SSE) 2,083 3.8 -10.4°
Reaches altitude 10° 03:09:00 10° 163° (SSE) 2,017 3.7 -10.4°
Maximum altitude 03:13:24 83° 76° (ENE) 646 1.6 -11.1°
Drops below altitude 10° 03:17:49 10° 349° (N) 2,029 5.0 -11.7°
Sets 03:20:01 0° 349° (NNW) 2,941 6.0 -12.0°
